Home   Weather   Temple   Past weeks

Flag for USA Past Weather in Temple, Texas, USA — Yesterday and Last 2 Weeks

Now
88 °F

Broken clouds.


Feels Like: 94 °F
Forecast: 74 / 88 °F
Wind: 10 mph from East

Location: Fort Hood AAF Airport

Current Time: Sep 24, 2016 at 5:37:04 PM

Latest Report: Sep 24, 2016 at 4:58 PM


Visibility: 10 mi

Pressure: 29.83 "Hg

Humidity: 58%

Dew Point: 71 °F

Location of TempleLocation

Past Weather in Temple — Graph

°F

Temple Temperature Yesterday

Maximum temperature yesterday: 91 °F (at 3:58 PM)
Minimum temperature yesterday: 72 °F (at 6:58 AM)
Average temperature yesterday: 80 °F

High & Low Weather Summary for the Past Weeks

 TemperatureHumidityPressure
High97 °F (Sep 20, 4:58 PM)97% (Sep 10, 5:58 AM)30.16 "Hg (Sep 10, 5:58 AM)
Low64 °F (Sep 11, 6:58 AM)33% (Sep 21, 3:58 PM)29.83 "Hg (Sep 16, 3:58 PM)
Average81 °F69%29.96 "Hg
* Reported Sep 9 3:58 PM — Sep 24 3:58 PM, Temple, Weather by CustomWeather, © 2016

Note: Actual official high and low records may vary slightly from our data, if they occured in-between our weather recording intervals... More about our weather records

Advertising

Temple Weather History for the Previous 24 Hours

Scroll right to see more
 ConditionsComfort  
Time TempWeatherWind HumidityBarometerVisibility
3:58 PM
Sat, Sep 24
90 °FScattered clouds.9 mph53%29.85 "Hg10 mi
2:58 PM89 °FSunny.10 mph56%29.88 "Hg10 mi
1:58 PM91 °FScattered clouds.13 mph51%29.91 "Hg10 mi
12:58 PM88 °FPassing clouds.13 mph56%29.93 "Hg10 mi
11:58 AM85 °FMostly cloudy.12 mph64%29.96 "Hg10 mi
10:58 AM82 °FPassing clouds.10 mph73%29.96 "Hg10 mi
9:58 AM80 °FPartly sunny.10 mph80%29.98 "Hg10 mi
8:58 AM78 °FScattered clouds.10 mph85%29.97 "Hg10 mi
8:03 AM75 °FFog.9 mph89%29.99 "Hg1 mi
7:58 AM74 °FFog.9 mph94%29.96 "Hg1 mi
6:58 AM74 °FFog.7 mph95%29.93 "Hg2 mi
5:58 AM75 °FFog.10 mph94%29.92 "Hg2 mi
4:58 AM74 °FFog.8 mph95%29.91 "Hg2 mi
3:58 AM73 °FFog.7 mph94%29.91 "Hg2 mi
2:58 AM75 °FFog.9 mph91%29.92 "Hg2 mi
1:58 AM75 °FFog.9 mph91%29.93 "Hg2 mi
1:03 AM75 °FFog.8 mph94%29.97 "Hg2 mi
12:58 AM76 °FFog.10 mph90%29.93 "Hg4 mi
11:58 PM
Fri, Sep 23
76 °FClear.9 mph88%29.93 "Hg10 mi
10:58 PM77 °FClear.9 mph85%29.93 "Hg10 mi
9:58 PM78 °FClear.13 mph79%29.91 "Hg10 mi
8:58 PM81 °FClear.12 mph72%29.89 "Hg10 mi
7:58 PM83 °FPassing clouds.15 mph70%29.88 "Hg10 mi
6:58 PM85 °FPassing clouds.12 mph60%29.87 "Hg10 mi
5:58 PM90 °FOvercast.10 mph53%29.86 "Hg10 mi
Weather by CustomWeather, © 2016

See weather overviewHow to use our weather pages